Flag for Philippines Weather past 2 weeks in Isabela City, Philippines

Now
93 °F

Scattered clouds.


Feels Like: 113 °F
Forecast: 78 / 90 °F
Wind: 5 mph from Southeast

Location: Zamboanga

Current Time: May 25, 2015 at 3:44:04 PM

Latest Report: May 25, 2015 at 3:00 PM


Visibility: N/A

Pressure: 29.86 "Hg

Humidity: 67%

Dew point: 81 °F

Location of Isabela CityLocation

Historic Weather in Isabela City — Graph

°F

Isabela City temperature yesterday

Maximum temperature yesterday: 91 °F (at 12:00 PM)
Minimum temperature yesterday: 75 °F (at 5:00 AM)
Average temperature yesterday: 84 °F

Past Weeks' High & Low Weather Summary

 TemperatureHumidityPressure
High97 °F (May 11, 1:00 PM)100% (May 25, 6:00 AM)30.01 "Hg (May 25, 6:00 AM)
Low75 °F (May 11, 5:00 AM)53% (May 11, 1:00 PM)29.83 "Hg (May 10, 3:00 PM)
Average86 °F79%29.90 "Hg
* Reported May 10 2:00 PM — May 25 2:00 PM, Isabela City, Weather by CustomWeather, © 2015

Note: Actual official high and low records may vary slightly from our data, if they occured in-between our weather recording intervals... More about our weather records

Advertising

Isabela City weather history for previous 24 hours

 ConditionsComfort  
Time TempWeatherWind HumidityBarometerVisibility
2:00 PM
Mon, May 25
93 °FPartly sunny.5 mph67%29.89 "HgN/A
1:00 PM95 °FPartly sunny.5 mph60%29.92 "HgN/A
12:00 PM91 °FPartly sunny.No wind67%29.92 "HgN/A
11:00 AM88 °FPartly sunny.No wind75%29.95 "HgN/A
10:00 AM86 °FPartly sunny.No wind79%29.95 "HgN/A
9:00 AM84 °FPartly sunny.No wind84%29.95 "HgN/A
8:00 AM81 °FPartly sunny.No wind84%29.95 "HgN/A
7:00 AM77 °FPartly sunny.No wind94%29.95 "HgN/A
6:00 AM75 °FPartly sunny.No wind100%29.92 "HgN/A
5:00 AM77 °FPassing clouds.No wind94%29.89 "HgN/A
2:00 AM77 °FPassing clouds.No wind94%29.95 "HgN/A
11:00 PM
Sun, May 24
77 °FPassing clouds.No wind94%29.95 "HgN/A
8:00 PM81 °FPassing clouds.No wind89%29.89 "HgN/A
6:00 PM84 °FPartly sunny.No wind79%29.89 "HgN/A
5:00 PM86 °FPartly sunny.5 mph79%29.89 "HgN/A
4:00 PM86 °FScattered clouds.5 mph79%29.86 "HgN/A
3:00 PM90 °FScattered clouds.5 mph75%29.89 "HgN/A
Weather by CustomWeather, © 2015

See weather overviewHow to use our weather pages